SCP
-0 -0 -0 -0 0 0 0 0 -0 0 0 0 0 0 0 0 0 0 0 0 0 0 0 0 1 1 1 2 2 2 2 1 0 0 0 0 0 0 0 0 0 0 0
-0 -0 -0 -0 -0 -0 0 0 0 -0 0 -0 -0 0 0 0 0 0 0 0 0 0 0 0 1 1 1 2 2 2 2 1 1 0 0 0 0 0 0 0 0 0 0
0 -0 -0 -0 -0 -0 -0 -0 0 0 0 0 0 0 0 0 0 0 0 0 0 0 0 0 1 1 1 2 2 2 2 2 1 0 0 0 0 0 0 0 0 0 0
-0 -0 -0 -0 -0 -0 -0 -0 -0 -0 -0 0 0 0 0 0 0 0 0 0 0 0 0 0 0 0 1 2 2 3 2 2 1 1 0 0 0 0 0 0 0 0 0
0 -0 -0 -0 -0 -0 -0 -0 -0 -0 0 0 0 0 0 0 0 0 0 0 0 0 0 0 0 0 0 1 2 3 2 2 1 1 0 0 0 0 0 0 0 0 0
0 0 0 -0 -0 -0 -0 -0 0 0 0 0 0 0 0 0 0 0 0 0 0 0 0 0 0 0 0 1 1 2 3 2 1 1 0 0 0 0 0 0 0 0 0
0 0 0 0 0 0 0 0 0 0 0 0 0 0 0 0 0 0 0 0 0 0 0 0 0 1 0 0 1 1 2 3 2 1 0 0 0 0 0 0 0 0 0
0 0 0 0 0 0 0 0 0 0 0 0 0 0 0 0 0 0 0 0 0 1 0 0 0 0 1 1 1 1 1 2 2 1 0 0 0 0 0 0 0 0 0
0 0 0 0 0 0 0 0 0 0 0 0 0 0 0 0 0 0 0 0 0 0 1 0 0 0 0 1 0 1 0 0 1 1 0 0 0 0 0 0 0 0 0
0 0 0 0 0 0 0 0 0 0 0 0 0 0 0 0 0 -0 0 0 0 0 0 0 0 0 0 1 0 0 0 0 1 0 0 0 0 0 0 0 0 0 0
0 0 0 0 0 0 0 0 0 0 0 0 0 0 0 0 0 0 -0 0 0 0 0 0 0 0 0 1 1 0 0 0 0 0 0 0 0 0 0 0 0 0 0
0 0 0 0 0 0 0 0 0 0 0 0 0 0 0 0 0 0 0 -0 -0 -0 0 0 0 0 0 0 0 0 0 0 0 0 0 0 0 0 0 0 0 0 0
0 0 0 0 0 0 0 0 0 0 0 0 0 0 0 0 0 0 0 -0 -0 -0 -0 0 0 0 0 0 0 0 0 0 0 0 0 0 0 0 0 0 0 0 0
0 0 0 0 0 0 0 0 0 0 0 0 0 0 0 0 0 0 0 -0 -0 -0 -0 0 0 0 0 0 0 0 0 0 0 0 0 0 0 0 0 0 0 0 0
0 0 0 0 0 0 0 0 0 0 0 0 0 0 0 0 0 0 0 0 -0 -0 -0 0 0 0 0 0 0 0 0 0 0 0 0 0 0 0 0 0 0 0 0
0 0 0 0 0 0 0 0 0 0 0 0 0 0 0 0 -0 -0 0 0 0 -0 -0 -0 0 0 0 0 0 0 0 0 0 0 0 0 0 0 0 0 0 0 0
0 0 0 0 0 0 0 0 0 0 0 0 0 0 0 0 -0 -0 0 0 -0 -0 -0 -0 -0 -0 0 0 0 0 0 0 0 0 0 0 0 0 0 0 0 0 0
0 0 0 0 0 0 0 0 0 0 0 0 0 0 0 0 0 0 -0 0 -0 0 -0 -0 -0 -0 0 0 0 0 0 0 0 0 0 0 0 0 0 0 0 0 0
0 0 0 0 0 0 0 0 0 0 0 0 0 0 0 0 0 0 -0 0 -0 0 -0 -0 -0 -0 0 0 0 0 0 0 0 0 0 0 0 0 0 0 0 0 0
0 0 0 0 0 0 0 0 0 0 0 0 0 0 0 0 0 0 0 0 -0 -0 -0 -0 -0 -0 -0 0 0 0 0 0 0 0 0 0 0 0 0 0 0 0 0
0 0 0 0 0 0 0 0 0 0 0 0 0 0 0 0 0 0 0 0 0 -0 -0 -0 -0 -0 0 0 0 0 0 0 0 0 0 0 0 0 0 0 0 0 0
0 0 0 0 0 0 0 0 -0 0 0 0 0 0 0 0 0 0 0 0 0 -0 -0 -0 -0 -0 0 0 0 0 0 0 0 0 0 0 0 0 0 0 0 0 0
0 0 0 0 0 0 0 0 0 0 0 0 0 0 0 0 0 0 0 0 0 -0 0 0 -0 0 0 0 0 0 0 0 0 0 0 0 0 0 0 0 0 0 0
0 0 0 0 0 0 0 0 0 0 0 0 0 0 0 0 0 0 0 -0 -0 -0 -0 0 -0 0 0 0 0 0 0 0 0 0 0 0 0 0 0 0 0 0 0
0 0 0 0 0 0 0 0 0 0 0 0 0 0 0 0 0 0 0 -0 -0 -0 0 0 0 0 0 0 0 0 0 0 0 0 0 0 0 0 0 0 0 0 0
0 0 0 0 0 0 0 0 0 0 0 0 0 0 0 0 0 0 0 -0 -0 -0 0 0 0 0 0 0 0 0 0 0 0 0 0 0 0 0 0 0 0 0 0
Wind_Speed_500mb
62 65 65 63 59 58 62 68 67 67 68 69 68 76 73 65 77 77 89 91 91 90 83 86 92 91 88 84 80 80 78 84 85 80 74 64 55 58 54 50 54 54 56
64 68 68 68 69 68 63 62 71 76 76 75 74 75 82 75 63 78 79 92 98 99 93 89 95 98 95 93 87 88 88 92 92 87 79 71 65 58 58 57 59 57 56
62 68 72 75 76 79 82 85 75 70 79 80 84 80 82 85 86 80 90 85 97 105 104 94 96 103 103 100 98 94 97 97 97 93 86 79 71 64 62 62 62 58 60
64 68 72 75 78 81 82 84 88 93 88 83 86 92 89 88 94 98 83 93 93 107 111 104 98 105 110 109 107 101 103 106 102 101 95 88 79 71 66 67 62 64 63
62 68 70 71 76 82 82 85 88 87 92 96 96 95 96 104 96 102 106 93 103 105 112 113 105 107 114 114 113 111 107 113 113 111 105 98 87 80 69 70 70 72 67
64 68 70 73 75 78 80 82 86 89 92 92 96 99 106 107 111 102 112 107 91 115 113 114 109 106 115 120 115 117 114 120 122 116 112 105 96 88 73 78 77 79 73
65 68 71 73 75 82 84 82 81 85 85 77 81 84 97 110 113 115 112 122 109 114 123 116 109 110 112 124 123 118 123 124 133 122 115 113 104 96 80 86 83 84 77
65 69 72 74 77 84 88 86 84 87 92 81 66 71 69 88 96 89 100 119 109 115 118 116 110 115 110 122 129 126 130 123 130 131 132 119 114 102 88 93 91 86 85
66 68 71 72 74 80 87 86 88 84 90 86 62 56 40 38 56 58 60 71 94 109 109 120 114 120 114 117 130 132 126 107 112 127 144 137 123 106 95 100 99 92 87
71 71 75 77 79 83 90 91 91 88 86 97 89 72 83 95 79 69 70 66 59 73 80 114 119 115 113 113 129 132 134 126 130 148 156 132 133 113 104 106 103 93 90
77 74 75 79 82 85 90 95 93 91 86 84 76 71 68 90 93 81 78 89 85 79 61 56 109 112 112 112 118 127 131 131 130 179 147 153 134 119 110 110 103 96 93
80 78 78 81 87 91 93 96 97 94 85 72 78 86 87 74 68 71 77 86 88 109 93 53 49 113 112 122 119 126 126 125 116 105 159 146 132 120 111 106 99 94 94
83 82 82 86 90 94 97 95 99 93 90 91 85 79 87 91 73 87 81 81 76 85 83 111 35 71 109 110 121 123 121 118 124 100 165 161 130 130 108 109 101 99 101
87 89 93 95 95 98 101 99 99 97 93 90 80 82 97 94 92 85 82 68 69 77 81 110 115 83 101 116 119 116 110 112 105 117 165 123 126 121 111 117 111 107 106
87 90 92 98 102 105 104 103 100 97 90 79 78 65 76 98 93 72 83 67 64 67 62 93 108 84 90 122 126 115 96 116 120 138 130 138 128 119 123 119 112 115 110
86 90 95 99 105 109 108 102 96 89 88 85 74 74 92 84 82 108 77 81 77 71 85 83 95 102 53 104 126 119 104 91 113 143 151 161 141 137 129 121 121 118 114
86 90 95 103 109 112 108 100 93 87 87 85 84 94 83 78 94 89 88 75 70 87 78 89 89 118 105 97 115 123 110 97 111 164 184 158 139 128 130 124 122 119 114
88 93 99 105 109 108 103 95 89 84 78 85 80 80 83 88 79 92 102 76 77 76 91 66 89 103 117 92 112 111 107 103 138 166 162 136 131 122 126 122 121 120 116
91 95 99 103 105 100 95 88 83 82 82 84 83 77 77 69 73 75 102 70 72 75 73 87 91 97 119 98 107 108 98 123 140 172 150 139 129 123 123 126 123 119 114
92 96 98 100 98 94 84 81 75 76 75 79 75 90 90 78 80 85 89 63 68 75 80 84 90 94 107 117 120 126 124 131 128 115 143 138 135 122 126 126 122 118 115
91 94 97 99 97 90 83 74 75 78 81 83 80 77 72 73 76 79 89 74 63 73 77 80 83 106 96 113 114 132 127 124 116 146 129 126 120 123 126 127 121 120 115
92 94 97 95 92 84 71 69 72 77 80 86 84 82 83 77 78 73 81 87 66 75 84 80 86 83 103 119 115 127 122 112 105 121 133 128 128 134 135 129 127 123 112
91 95 95 90 88 83 69 68 71 76 81 86 86 83 84 81 76 74 73 77 89 78 83 85 75 71 111 135 131 128 126 142 120 137 126 117 131 127 135 134 132 122 112
93 93 94 90 85 77 68 70 72 76 82 93 84 85 85 87 87 75 69 77 95 96 94 77 81 103 102 138 159 166 157 139 113 139 126 119 128 119 129 137 127 118 116
93 93 91 88 84 75 71 69 71 69 72 79 84 77 79 84 77 65 64 77 89 90 90 82 84 103 126 146 153 135 129 128 102 122 116 107 121 110 122 138 133 116 125
90 91 95 89 90 84 77 68 63 75 70 80 68 66 65 66 69 69 67 71 82 96 89 71 65 104 140 143 153 156 161 146 124 112 128 114 125 120 97 131 126 122 108
Wind_Direction_500mb
334 331 329 327 323 317 311 308 306 300 292 284 278 267 262 265 261 260 261 256 254 254 248 241 235 231 230 228 228 223 220 219 217 215 216 217 214 213 210 203 183 179 173
331 330 329 327 325 322 317 311 307 306 301 295 287 276 267 261 267 266 261 261 256 253 250 241 239 235 230 229 228 224 224 221 219 216 215 214 215 215 208 199 184 181 177
331 329 326 326 326 324 322 320 314 305 301 299 293 284 274 264 260 264 261 258 258 255 252 246 237 236 232 229 228 227 225 220 221 217 214 214 212 212 205 194 185 179 188
329 326 326 325 324 321 320 318 316 315 309 302 297 293 284 271 260 254 263 260 256 254 253 248 240 235 235 230 230 228 224 222 221 219 216 214 211 210 208 196 187 182 192
326 324 322 322 321 319 316 314 313 310 306 305 301 295 287 282 269 254 251 256 257 253 250 251 244 235 235 233 230 229 227 223 223 219 216 212 210 209 208 195 187 186 187
326 322 322 322 319 315 313 311 309 306 304 300 298 294 290 283 278 264 254 248 257 253 251 246 248 237 231 234 231 228 227 225 219 219 214 211 207 207 207 192 193 188 187
326 325 324 323 322 318 317 314 310 306 300 297 297 295 291 284 279 272 259 252 251 249 250 249 241 243 231 231 232 229 224 222 218 218 214 209 207 208 204 192 196 186 189
327 325 323 322 321 320 319 318 315 309 302 298 282 287 294 291 279 283 268 255 251 246 251 247 237 237 238 231 230 231 229 212 210 219 219 209 207 207 204 193 196 188 188
326 325 322 320 319 317 316 316 313 308 301 296 288 266 282 265 292 285 259 250 251 241 238 249 244 239 236 235 230 230 230 209 217 224 208 205 207 205 203 195 195 190 186
325 325 323 321 319 318 318 316 312 304 294 289 282 259 262 261 269 286 274 266 243 230 245 237 243 246 240 233 231 229 229 229 222 213 214 206 204 203 205 194 196 187 186
323 325 321 318 317 316 314 312 307 299 292 286 281 274 263 260 252 258 273 276 267 253 241 242 237 241 241 228 228 231 230 230 220 213 207 207 200 201 191 193 193 187 186
320 321 319 318 316 314 313 311 306 298 291 277 268 259 258 263 254 245 255 267 272 266 254 264 248 236 236 233 231 231 229 227 229 219 200 213 196 200 194 195 190 187 187
319 321 318 316 315 314 311 309 305 298 289 282 272 266 253 261 264 246 250 262 270 278 271 260 243 241 232 230 228 231 229 228 222 220 202 196 192 197 196 194 190 189 187
321 320 319 317 316 313 310 307 303 295 290 288 280 272 260 250 257 258 246 254 273 272 271 262 262 271 228 229 227 228 227 227 223 218 206 197 194 196 198 189 192 185 186
319 319 317 316 315 312 309 305 301 294 286 279 267 270 261 256 252 256 250 249 257 261 268 264 263 263 223 222 227 223 221 221 226 204 201 194 197 197 195 188 186 185 183
320 318 317 317 314 310 308 304 297 287 282 280 280 272 262 256 259 250 257 249 254 255 258 262 257 250 261 228 225 221 221 221 222 212 200 195 193 192 190 188 186 186 185
321 320 319 317 312 309 306 300 293 284 282 278 269 274 270 264 249 246 247 246 247 248 257 257 263 256 257 228 223 223 224 230 219 203 197 193 194 187 187 187 188 187 186
323 323 319 314 310 309 306 300 294 286 279 275 272 271 264 262 258 251 238 251 248 257 256 269 256 256 247 236 218 219 217 214 197 194 189 186 185 185 187 188 190 188 186
324 321 317 313 312 310 305 298 291 285 280 277 277 271 270 265 256 252 239 257 247 252 257 257 263 258 255 214 205 208 202 188 181 185 185 180 179 185 189 190 191 190 188
323 320 318 316 316 311 303 298 291 287 284 281 272 265 262 257 258 251 241 250 243 257 262 257 256 251 250 200 202 190 183 184 179 190 191 177 178 185 190 192 192 191 190
322 322 321 321 320 312 305 299 296 292 291 286 285 283 275 257 257 255 247 241 254 260 262 260 259 242 247 188 185 184 181 178 188 173 171 176 178 184 193 194 193 193 194
325 325 327 325 319 314 306 295 290 287 284 282 278 275 275 265 254 257 250 244 244 261 259 263 253 249 232 182 173 170 162 159 156 170 170 175 183 190 194 194 195 197 198
328 331 329 329 325 318 307 300 296 292 288 284 280 276 272 264 257 257 253 248 244 248 254 265 253 262 189 183 173 166 164 168 168 171 172 176 187 193 196 196 198 198 196
333 333 334 336 327 321 310 305 301 298 295 289 281 274 269 266 259 250 256 251 252 253 255 263 257 263 202 184 181 178 171 167 169 172 174 177 188 191 197 200 200 198 197
334 338 338 338 338 331 320 312 308 306 302 304 280 276 267 262 259 251 254 256 254 255 255 262 266 233 190 185 180 172 167 165 165 175 180 183 186 189 198 201 198 197 197
339 341 340 341 341 333 322 315 315 310 307 315 285 278 270 261 257 248 248 254 252 250 256 268 235 206 187 183 178 181 178 170 169 174 186 183 185 185 187 203 200 199 197
Wind_Speed_850mb
62 65 65 63 59 58 62 68 67 67 68 69 68 76 73 65 77 77 89 91 91 90 83 86 92 91 88 84 80 80 78 84 85 80 74 64 55 58 54 50 54 54 56
64 68 68 68 69 68 63 62 71 76 76 75 74 75 82 75 63 78 79 92 98 99 93 89 95 98 95 93 87 88 88 92 92 87 79 71 65 58 58 57 59 57 56
62 68 72 75 76 79 82 85 75 70 79 80 84 80 82 85 86 80 90 85 97 105 104 94 96 103 103 100 98 94 97 97 97 93 86 79 71 64 62 62 62 58 60
64 68 72 75 78 81 82 84 88 93 88 83 86 92 89 88 94 98 83 93 93 107 111 104 98 105 110 109 107 101 103 106 102 101 95 88 79 71 66 67 62 64 63
62 68 70 71 76 82 82 85 88 87 92 96 96 95 96 104 96 102 106 93 103 105 112 113 105 107 114 114 113 111 107 113 113 111 105 98 87 80 69 70 70 72 67
64 68 70 73 75 78 80 82 86 89 92 92 96 99 106 107 111 102 112 107 91 115 113 114 109 106 115 120 115 117 114 120 122 116 112 105 96 88 73 78 77 79 73
65 68 71 73 75 82 84 82 81 85 85 77 81 84 97 110 113 115 112 122 109 114 123 116 109 110 112 124 123 118 123 124 133 122 115 113 104 96 80 86 83 84 77
65 69 72 74 77 84 88 86 84 87 92 81 66 71 69 88 96 89 100 119 109 115 118 116 110 115 110 122 129 126 130 123 130 131 132 119 114 102 88 93 91 86 85
66 68 71 72 74 80 87 86 88 84 90 86 62 56 40 38 56 58 60 71 94 109 109 120 114 120 114 117 130 132 126 107 112 127 144 137 123 106 95 100 99 92 87
71 71 75 77 79 83 90 91 91 88 86 97 89 72 83 95 79 69 70 66 59 73 80 114 119 115 113 113 129 132 134 126 130 148 156 132 133 113 104 106 103 93 90
77 74 75 79 82 85 90 95 93 91 86 84 76 71 68 90 93 81 78 89 85 79 61 56 109 112 112 112 118 127 131 131 130 179 147 153 134 119 110 110 103 96 93
80 78 78 81 87 91 93 96 97 94 85 72 78 86 87 74 68 71 77 86 88 109 93 53 49 113 112 122 119 126 126 125 116 105 159 146 132 120 111 106 99 94 94
83 82 82 86 90 94 97 95 99 93 90 91 85 79 87 91 73 87 81 81 76 85 83 111 35 71 109 110 121 123 121 118 124 100 165 161 130 130 108 109 101 99 101
87 89 93 95 95 98 101 99 99 97 93 90 80 82 97 94 92 85 82 68 69 77 81 110 115 83 101 116 119 116 110 112 105 117 165 123 126 121 111 117 111 107 106
87 90 92 98 102 105 104 103 100 97 90 79 78 65 76 98 93 72 83 67 64 67 62 93 108 84 90 122 126 115 96 116 120 138 130 138 128 119 123 119 112 115 110
86 90 95 99 105 109 108 102 96 89 88 85 74 74 92 84 82 108 77 81 77 71 85 83 95 102 53 104 126 119 104 91 113 143 151 161 141 137 129 121 121 118 114
86 90 95 103 109 112 108 100 93 87 87 85 84 94 83 78 94 89 88 75 70 87 78 89 89 118 105 97 115 123 110 97 111 164 184 158 139 128 130 124 122 119 114
88 93 99 105 109 108 103 95 89 84 78 85 80 80 83 88 79 92 102 76 77 76 91 66 89 103 117 92 112 111 107 103 138 166 162 136 131 122 126 122 121 120 116
91 95 99 103 105 100 95 88 83 82 82 84 83 77 77 69 73 75 102 70 72 75 73 87 91 97 119 98 107 108 98 123 140 172 150 139 129 123 123 126 123 119 114
92 96 98 100 98 94 84 81 75 76 75 79 75 90 90 78 80 85 89 63 68 75 80 84 90 94 107 117 120 126 124 131 128 115 143 138 135 122 126 126 122 118 115
91 94 97 99 97 90 83 74 75 78 81 83 80 77 72 73 76 79 89 74 63 73 77 80 83 106 96 113 114 132 127 124 116 146 129 126 120 123 126 127 121 120 115
92 94 97 95 92 84 71 69 72 77 80 86 84 82 83 77 78 73 81 87 66 75 84 80 86 83 103 119 115 127 122 112 105 121 133 128 128 134 135 129 127 123 112
91 95 95 90 88 83 69 68 71 76 81 86 86 83 84 81 76 74 73 77 89 78 83 85 75 71 111 135 131 128 126 142 120 137 126 117 131 127 135 134 132 122 112
93 93 94 90 85 77 68 70 72 76 82 93 84 85 85 87 87 75 69 77 95 96 94 77 81 103 102 138 159 166 157 139 113 139 126 119 128 119 129 137 127 118 116
93 93 91 88 84 75 71 69 71 69 72 79 84 77 79 84 77 65 64 77 89 90 90 82 84 103 126 146 153 135 129 128 102 122 116 107 121 110 122 138 133 116 125
90 91 95 89 90 84 77 68 63 75 70 80 68 66 65 66 69 69 67 71 82 96 89 71 65 104 140 143 153 156 161 146 124 112 128 114 125 120 97 131 126 122 108
Wind_Direction_850mb
334 331 329 327 323 317 311 308 306 300 292 284 278 267 262 265 261 260 261 256 254 254 248 241 235 231 230 228 228 223 220 219 217 215 216 217 214 213 210 203 183 179 173
331 330 329 327 325 322 317 311 307 306 301 295 287 276 267 261 267 266 261 261 256 253 250 241 239 235 230 229 228 224 224 221 219 216 215 214 215 215 208 199 184 181 177
331 329 326 326 326 324 322 320 314 305 301 299 293 284 274 264 260 264 261 258 258 255 252 246 237 236 232 229 228 227 225 220 221 217 214 214 212 212 205 194 185 179 188
329 326 326 325 324 321 320 318 316 315 309 302 297 293 284 271 260 254 263 260 256 254 253 248 240 235 235 230 230 228 224 222 221 219 216 214 211 210 208 196 187 182 192
326 324 322 322 321 319 316 314 313 310 306 305 301 295 287 282 269 254 251 256 257 253 250 251 244 235 235 233 230 229 227 223 223 219 216 212 210 209 208 195 187 186 187
326 322 322 322 319 315 313 311 309 306 304 300 298 294 290 283 278 264 254 248 257 253 251 246 248 237 231 234 231 228 227 225 219 219 214 211 207 207 207 192 193 188 187
326 325 324 323 322 318 317 314 310 306 300 297 297 295 291 284 279 272 259 252 251 249 250 249 241 243 231 231 232 229 224 222 218 218 214 209 207 208 204 192 196 186 189
327 325 323 322 321 320 319 318 315 309 302 298 282 287 294 291 279 283 268 255 251 246 251 247 237 237 238 231 230 231 229 212 210 219 219 209 207 207 204 193 196 188 188
326 325 322 320 319 317 316 316 313 308 301 296 288 266 282 265 292 285 259 250 251 241 238 249 244 239 236 235 230 230 230 209 217 224 208 205 207 205 203 195 195 190 186
325 325 323 321 319 318 318 316 312 304 294 289 282 259 262 261 269 286 274 266 243 230 245 237 243 246 240 233 231 229 229 229 222 213 214 206 204 203 205 194 196 187 186
323 325 321 318 317 316 314 312 307 299 292 286 281 274 263 260 252 258 273 276 267 253 241 242 237 241 241 228 228 231 230 230 220 213 207 207 200 201 191 193 193 187 186
320 321 319 318 316 314 313 311 306 298 291 277 268 259 258 263 254 245 255 267 272 266 254 264 248 236 236 233 231 231 229 227 229 219 200 213 196 200 194 195 190 187 187
319 321 318 316 315 314 311 309 305 298 289 282 272 266 253 261 264 246 250 262 270 278 271 260 243 241 232 230 228 231 229 228 222 220 202 196 192 197 196 194 190 189 187
321 320 319 317 316 313 310 307 303 295 290 288 280 272 260 250 257 258 246 254 273 272 271 262 262 271 228 229 227 228 227 227 223 218 206 197 194 196 198 189 192 185 186
319 319 317 316 315 312 309 305 301 294 286 279 267 270 261 256 252 256 250 249 257 261 268 264 263 263 223 222 227 223 221 221 226 204 201 194 197 197 195 188 186 185 183
320 318 317 317 314 310 308 304 297 287 282 280 280 272 262 256 259 250 257 249 254 255 258 262 257 250 261 228 225 221 221 221 222 212 200 195 193 192 190 188 186 186 185
321 320 319 317 312 309 306 300 293 284 282 278 269 274 270 264 249 246 247 246 247 248 257 257 263 256 257 228 223 223 224 230 219 203 197 193 194 187 187 187 188 187 186
323 323 319 314 310 309 306 300 294 286 279 275 272 271 264 262 258 251 238 251 248 257 256 269 256 256 247 236 218 219 217 214 197 194 189 186 185 185 187 188 190 188 186
324 321 317 313 312 310 305 298 291 285 280 277 277 271 270 265 256 252 239 257 247 252 257 257 263 258 255 214 205 208 202 188 181 185 185 180 179 185 189 190 191 190 188
323 320 318 316 316 311 303 298 291 287 284 281 272 265 262 257 258 251 241 250 243 257 262 257 256 251 250 200 202 190 183 184 179 190 191 177 178 185 190 192 192 191 190
322 322 321 321 320 312 305 299 296 292 291 286 285 283 275 257 257 255 247 241 254 260 262 260 259 242 247 188 185 184 181 178 188 173 171 176 178 184 193 194 193 193 194
325 325 327 325 319 314 306 295 290 287 284 282 278 275 275 265 254 257 250 244 244 261 259 263 253 249 232 182 173 170 162 159 156 170 170 175 183 190 194 194 195 197 198
328 331 329 329 325 318 307 300 296 292 288 284 280 276 272 264 257 257 253 248 244 248 254 265 253 262 189 183 173 166 164 168 168 171 172 176 187 193 196 196 198 198 196
333 333 334 336 327 321 310 305 301 298 295 289 281 274 269 266 259 250 256 251 252 253 255 263 257 263 202 184 181 178 171 167 169 172 174 177 188 191 197 200 200 198 197
334 338 338 338 338 331 320 312 308 306 302 304 280 276 267 262 259 251 254 256 254 255 255 262 266 233 190 185 180 172 167 165 165 175 180 183 186 189 198 201 198 197 197
339 341 340 341 341 333 322 315 315 310 307 315 285 278 270 261 257 248 248 254 252 250 256 268 235 206 187 183 178 181 178 170 169 174 186 183 185 185 187 203 200 199 197